SL-16 DEB, 39895

Orbit data source: Space-Track

SL-16 DEB, 39895 is space debris in LEO originally from a launch on Fri, 26 Mar 1993 UTC launched from the Tyuratam Missile And Space Complex (TTMTR). Debris objects in space refer to the collection of defunct objects orbiting the Earth. Examples of debris include non-operational satellites, rocket bodies, and fragments generated from explosions, collisions, or faulty payload assembly.

Loading next visibility...
Identifier
39895, 1993-016BV
Orbit
LEO
Country
Flag of CISCIS
Related business
Manufacturer
Unknown
Mission
Spacecraft
Bus & Motor
Unknown
Mass
Unknown
Launch date (UTC)
1993-03-26 (33 years ago)
Launch vehicle
Unknown
Launch site
Tyuratam Missile And Space Complex (TTMTR)
Object type
Payload
Rocket body
Debris
Shape & HBR
Unknown shape, 0.1 m
Radar Cross Section
Small (<0.1 m²)

Expand to show TLE details & history
Last TLE update: 6 days ago

TLE from 6 days ago
0 SL-16 DEB
1 39895U 93016BV  25348.36013606  .00000447  00000-0  33716-3 0  9998
2 39895  70.9884 215.0013 0123824 228.4100 130.6350 13.96081387308129
Epoch: 2025-12-14T08:38Z
TLE epoch observation values (Epoch: 2025-12-14T08:38:35.755Z)
Latitude
0.00001°
Longitude
2.07815°
Altitude
969.168 km
Speed
7.337 km/s
True Right ascension
14h 20m 00s
True Declination
0° 00' 00"
Sunlit
Object was in daylight at epoch
Visualization orbit readout
Latitude
Unknown
Longitude
Unknown
Altitude
Unknown
Speed
Unknown
Apparent Right ascension
Unknown
Apparent Declination
Unknown
Sunlit
N/A
Visualization observer readout
Local Sidereal Time
20:03:54
Azimuth
Unknown
Elevation
Unknown
Doppler factor
Unknown
Orbital elements
Apogee altitude
995.527 km
Perigee altitude
815.154 km
Semi-major axis
7,283.477 km
Eccentricity
0.01238
Inclination
70.9884°
RAAN
215.0013°
Arg. of periapsis
228.41°
True anomaly
131.70097°
Mean anomaly
130.635°
Eccentric anomaly
131.16906°
Mean motion
3.49168 °/min
Orbital period
103.1 mins
BSTAR
0.00033716
Loading maneuver chart data...
Computing Atmospheric mass density...
Loading historical data...
Loading historical data...
Loading historical data...
Loading historical data...
Loading historical data...
Loading historical data...
Loading historical data...

Documentation

Showing up to 5 results
|